Waarnemingen

Advertentie
Mijn weer
Culdrose, Groot Brittannië (3809): temperatuur & dauwpunt: 16.10.2017 13:00:00 - 22.10.2017 13:00:00 (BST)Culdrose, Groot Brittannië (3809): windsnelheid & windstoten: 16.10.2017 13:00:00 - 22.10.2017 13:00:00 (BST)Culdrose, Groot Brittannië (3809): windrichting: 16.10.2017 13:00:00 - 22.10.2017 13:00:00 (BST)Culdrose, Groot Brittannië (3809): luchtdruk: 16.10.2017 13:00:00 - 22.10.2017 13:00:00 (BST)Culdrose, Groot Brittannië (3809): zicht: 16.10.2017 13:00:00 - 22.10.2017 13:00:00 (BST)Culdrose, Groot Brittannië (3809): neerslag: 16.10.2017 13:00:00 - 22.10.2017 13:00:00 (BST)
Datum & Tijd tt [°C] td [°C] ff [km/u] ff [kn] fx [km/u] fx [kn] dd ppp [hPa] vv [km] rr [mm]
22.10.2017 13:00:00 - - - - - - - - - -
22.10.2017 12:00:00 12,7 7,0 37 20 55 30 W 1021,3 10 0,0
22.10.2017 11:00:00 11,9 7,4 37 20 57 31 WNW 1020,7 10 0,0
22.10.2017 10:00:00 10,9 7,5 39 21 55 30 WNW 1020,3 10 0,0
22.10.2017 09:00:00 10,5 6,0 34 18 52 28 WNW 1019,8 10 0,0
22.10.2017 08:00:00 9,9 6,0 39 21 52 28 WNW 1019,2 10 0,0
22.10.2017 07:00:00 9,6 6,9 34 18 48 26 WNW 1018,7 10 -
22.10.2017 06:00:00 9,2 6,5 34 18 57 31 W 1018,4 10 0,2
22.10.2017 05:00:00 10,1 4,8 39 21 57 31 WNW 1017,6 10 0,0
22.10.2017 04:00:00 9,7 4,6 42 23 68 37 W 1017,0 10 0,0
22.10.2017 03:00:00 10,4 5,2 41 22 61 33 WNW 1016,7 10 0,0
22.10.2017 02:00:00 10,2 6,4 41 22 63 34 WNW 1015,8 10 0,0
22.10.2017 01:00:00 10,4 6,2 42 23 59 32 W 1015,1 10 0,0
22.10.2017 00:00:00 10,5 6,5 44 24 65 35 W 1014,5 10 -
21.10.2017 23:00:00 10,9 6,6 48 26 68 37 W 1013,7 10 0,0
21.10.2017 22:00:00 11,0 6,5 44 24 74 40 W 1012,7 10 0,0
21.10.2017 21:00:00 11,0 6,8 52 28 74 40 W 1011,9 10 -
21.10.2017 20:00:00 11,3 7,1 48 26 83 45 W 1010,8 13 0,0
21.10.2017 19:00:00 11,5 8,0 54 29 83 45 W 1009,6 10 0,2
21.10.2017 18:00:00 11,1 8,5 57 31 87 47 W 1008,2 7 1,0
21.10.2017 17:00:00 11,1 8,7 59 32 94 51 W 1007,1 9 1,0
21.10.2017 16:00:00 10,1 9,7 63 34 94 51 W 1006,3 1,0 1,8
21.10.2017 15:00:00 12,8 7,7 50 27 91 49 WZW 1005,2 10 0,0
21.10.2017 14:00:00 13,2 8,5 44 24 85 46 WZW 1004,7 10 0,0
21.10.2017 13:00:00 13,0 7,7 50 27 83 45 WZW 1004,1 10 0,0
21.10.2017 12:00:00 12,5 7,8 50 27 87 47 WZW 1003,5 10 0,0
21.10.2017 11:00:00 12,7 7,6 44 24 80 43 WZW 1003,0 10 0,0
21.10.2017 10:00:00 13,1 7,8 50 27 81 44 WZW 1002,3 10 0,0
21.10.2017 09:00:00 12,7 7,7 39 21 93 50 WZW 1001,5 10 0,0
21.10.2017 08:00:00 12,5 8,8 52 28 91 49 WZW 1000,5 10 0,0
21.10.2017 07:00:00 11,9 9,8 52 28 104 56 ZW 1000,1 7 -
21.10.2017 06:00:00 12,5 9,6 65 35 98 53 ZW 999,5 9 -
21.10.2017 05:00:00 13,2 9,0 65 35 94 51 ZW 999,1 10 -
21.10.2017 04:00:00 13,1 9,5 57 31 89 48 ZW 999,3 10 -
21.10.2017 03:00:00 13,6 9,5 55 30 80 43 ZZW 999,6 10 -
21.10.2017 02:00:00 13,6 9,8 52 28 80 43 ZW 999,9 10 -
21.10.2017 01:00:00 12,4 10,1 52 28 91 49 ZW 1000,0 10 -
21.10.2017 00:00:00 14,1 12,0 44 24 63 34 ZZW 1000,1 10 -
20.10.2017 23:00:00 14,1 12,7 39 21 61 33 Z 999,9 10 -
20.10.2017 22:00:00 13,9 11,8 34 18 54 29 ZZW 1000,2 10 -
20.10.2017 21:00:00 13,1 11,4 29 16 57 31 ZZW 1000,4 10 -
20.10.2017 20:00:00 13,5 12,9 54 29 81 44 ZZW 1000,9 5 2,0
20.10.2017 19:00:00 14,1 13,6 42 23 72 39 Z 1000,3 1,9 2,6
20.10.2017 18:00:00 14,0 12,8 42 23 67 36 Z 1001,8 6 0,6
20.10.2017 17:00:00 13,7 12,1 35 19 61 33 Z 1003,5 10 0,2
20.10.2017 16:00:00 14,0 11,3 35 19 59 32 Z 1005,0 10 0,0
20.10.2017 15:00:00 14,2 10,5 42 23 61 33 ZZO 1005,7 10 0,0
20.10.2017 14:00:00 14,4 11,0 26 14 52 28 Z 1007,0 10 0,0
20.10.2017 13:00:00 13,7 9,7 24 13 - - Z 1008,1 10 0,0
20.10.2017 12:00:00 13,2 10,1 21 11 - - ZZW 1009,0 10 0,0
20.10.2017 11:00:00 12,8 9,3 18 10 - - ZZW 1009,0 10 0,0
20.10.2017 10:00:00 12,6 9,0 16 9 - - ZW 1009,2 10 0,0
20.10.2017 09:00:00 11,0 7,6 11 6 - - W 1009,0 10 0,0
20.10.2017 08:00:00 9,6 6,8 16 9 - - W 1008,5 10 0,0
20.10.2017 07:00:00 10,2 6,0 18 10 - - W 1008,1 10 0,0
20.10.2017 06:00:00 9,8 6,9 21 11 - - W 1007,1 10 0,0
20.10.2017 05:00:00 10,2 6,8 24 13 46 25 WNW 1006,4 10 0,0
20.10.2017 04:00:00 10,1 6,6 37 20 59 32 WNW 1005,5 10 0,0
20.10.2017 03:00:00 11,0 7,3 37 20 55 30 W 1004,8 10 0,0
20.10.2017 02:00:00 10,7 9,2 44 24 65 35 W 1003,2 6 0,2
20.10.2017 01:00:00 11,4 9,3 50 27 70 38 W 1001,7 10 0,0
20.10.2017 00:00:00 11,3 10,0 50 27 78 42 W 1000,3 8 0,0
19.10.2017 23:00:00 11,6 10,1 52 28 76 41 W 999,1 8 0,2
19.10.2017 22:00:00 11,4 10,2 42 23 72 39 W 997,9 5 0,4
19.10.2017 21:00:00 11,5 10,3 41 22 72 39 WZW 996,6 3,5 0,2
19.10.2017 20:00:00 11,4 11,0 41 22 80 43 WZW 995,5 3,0 0,6
19.10.2017 19:00:00 11,7 10,9 48 26 76 41 WZW 994,5 3,0 0,2
19.10.2017 18:00:00 11,8 11,0 42 23 78 42 ZW 994,3 3,0 0,0
19.10.2017 17:00:00 13,2 11,8 37 20 67 36 ZW 994,0 10 0,0
19.10.2017 16:00:00 13,7 12,9 37 20 87 47 ZW 993,9 12 1,4
19.10.2017 15:00:00 13,9 13,4 41 22 78 42 Z 994,3 2,0 1,0
19.10.2017 14:00:00 13,7 13,3 35 19 65 35 ZZO 996,2 2,0 4,6
19.10.2017 13:00:00 13,8 13,3 29 16 57 31 ZZO 998,2 2,5 2,4
19.10.2017 12:00:00 14,2 13,4 34 18 57 31 ZZO 999,6 7 0,0
19.10.2017 11:00:00 14,1 13,2 26 14 - - ZZO 1000,4 10 0,0
19.10.2017 10:00:00 13,7 12,9 21 11 - - ZZO 1001,6 10 0,0
19.10.2017 09:00:00 13,3 12,2 16 9 - - ZZO 1002,2 10 0,0
19.10.2017 08:00:00 13,1 11,8 16 9 - - ZZO 1002,4 10 0,0
19.10.2017 07:00:00 13,6 11,8 18 10 - - Z 1003,1 10 0,0
19.10.2017 06:00:00 13,2 11,6 15 8 - - Z 1003,7 10 0,0
19.10.2017 05:00:00 13,1 11,8 16 9 - - Z 1004,2 10 0,0
19.10.2017 04:00:00 13,2 12,3 24 13 - - ZZO 1005,3 10 0,0
19.10.2017 03:00:00 13,0 12,3 22 12 - - Z 1006,2 10 0,0
19.10.2017 02:00:00 12,8 11,9 16 9 - - Z 1007,0 10 0,0
19.10.2017 01:00:00 12,8 11,8 15 8 - - Z 1007,2 10 0,0
19.10.2017 00:00:00 12,7 12,2 16 9 - - Z 1007,9 10 0,0
18.10.2017 23:00:00 13,0 12,6 15 8 - - Z 1008,0 7 0,0
18.10.2017 22:00:00 13,3 12,8 13 7 - - Z 1008,4 8 0,0
18.10.2017 21:00:00 13,2 12,6 15 8 - - Z 1008,5 10 0,0
18.10.2017 20:00:00 13,7 13,1 13 7 - - ZZO 1008,8 8 0,0
18.10.2017 19:00:00 14,1 13,3 16 9 - - Z 1008,8 8 0,0
18.10.2017 18:00:00 14,5 13,4 13 7 - - Z 1008,4 8 0,0
18.10.2017 17:00:00 14,8 13,5 18 10 - - Z 1008,6 8 0,0
18.10.2017 16:00:00 15,5 13,8 18 10 - - Z 1008,8 10 0,0
18.10.2017 15:00:00 15,5 14,1 16 9 - - Z 1009,0 10 0,0
18.10.2017 14:00:00 15,4 13,9 13 7 - - ZZO 1009,0 10 0,0
18.10.2017 13:00:00 16,2 14,0 13 7 - - ZZO 1009,5 10 0,0
18.10.2017 12:00:00 15,1 13,5 13 7 - - ZZO 1009,7 10 0,0
18.10.2017 11:00:00 14,2 13,2 18 10 - - ZO 1009,8 8 0,0
18.10.2017 10:00:00 13,8 13,0 15 8 - - ZO 1010,0 6 0,0
18.10.2017 09:00:00 13,4 12,8 15 8 - - OZO 1009,8 4,0 0,0
18.10.2017 08:00:00 13,0 12,6 15 8 - - OZO 1009,7 3,0 0,0
18.10.2017 07:00:00 12,6 12,3 16 9 - - O 1009,7 2,5 0,0
18.10.2017 06:00:00 12,1 11,9 16 9 - - O 1010,2 2,0 0,0
18.10.2017 05:00:00 11,7 11,4 21 11 - - O 1010,4 2,5 0,0
18.10.2017 04:00:00 11,6 11,1 29 16 - - O 1010,9 5 0,0
18.10.2017 03:00:00 11,7 10,7 35 19 - - O 1011,4 8 0,0
18.10.2017 02:00:00 11,5 10,5 35 19 48 26 ONO 1011,8 8 0,0
18.10.2017 01:00:00 11,5 10,6 37 20 - - ONO 1012,4 8 0,0
18.10.2017 00:00:00 11,4 10,4 31 17 - - ONO 1013,1 10 0,0
17.10.2017 23:00:00 11,3 10,4 28 15 - - ONO 1014,3 10 0,0
17.10.2017 22:00:00 11,2 10,1 29 16 - - O 1014,7 10 0,0
17.10.2017 21:00:00 11,3 9,8 22 12 - - O 1015,5 10 0,0
17.10.2017 20:00:00 11,1 9,5 18 10 - - O 1015,8 10 0,0
17.10.2017 19:00:00 11,1 9,9 18 10 - - OZO 1015,5 10 0,2
17.10.2017 18:00:00 11,2 8,9 9 5 - - O 1016,0 10 0,0
17.10.2017 17:00:00 11,6 9,4 11 6 - - O 1016,5 10 0,0
17.10.2017 16:00:00 11,9 9,2 11 6 - - O 1017,1 10 0,0
17.10.2017 15:00:00 12,2 8,8 13 7 - - OZO 1017,6 10 0,0
17.10.2017 14:00:00 13,0 11,2 9 5 - - ZO 1018,4 10 0,0
17.10.2017 13:00:00 13,5 11,0 8 4 - - ZO 1019,1 10 0,0
17.10.2017 12:00:00 13,8 10,7 8 4 - - ZZO 1019,9 10 0,0
17.10.2017 11:00:00 12,6 11,1 4 2 - - O 1020,0 10 0,0
17.10.2017 10:00:00 12,1 10,8 2 1 - - ZO 1019,8 10 0,0
17.10.2017 09:00:00 9,9 9,0 5 3 - - ZZO 1020,0 10 0,0
17.10.2017 08:00:00 8,5 7,2 4 2 - - ZZW 1019,6 10 0,0
17.10.2017 07:00:00 11,3 9,0 9 5 - - ZW 1019,8 10 0,0
17.10.2017 06:00:00 11,6 9,1 9 5 - - WZW 1019,3 10 0,0
17.10.2017 05:00:00 12,2 9,8 13 7 - - WZW 1019,0 10 0,0
17.10.2017 04:00:00 12,5 9,5 22 12 - - WZW 1019,4 10 0,0
17.10.2017 03:00:00 12,6 9,2 29 16 - - WZW 1019,8 10 0,0
17.10.2017 02:00:00 12,7 9,5 28 15 - - ZW 1019,9 10 0,0
17.10.2017 01:00:00 12,7 9,9 34 18 50 27 ZW 1019,8 10 0,0
17.10.2017 00:00:00 12,9 10,0 37 20 54 29 ZW 1019,5 10 0,0
16.10.2017 23:00:00 13,0 9,4 39 21 57 31 ZW 1018,9 10 0,0
16.10.2017 22:00:00 13,2 9,4 46 25 61 33 ZW 1018,3 10 0,0
16.10.2017 21:00:00 13,5 9,9 44 24 67 36 ZW 1017,5 10 0,0
16.10.2017 20:00:00 13,7 9,6 46 25 65 35 ZW 1016,6 10 0,0
16.10.2017 19:00:00 13,6 9,6 50 27 78 42 ZW 1015,8 10 0,0
16.10.2017 18:00:00 13,9 9,4 42 23 78 42 ZW 1014,7 7 0,0
16.10.2017 17:00:00 14,4 9,7 48 26 96 52 ZW 1014,0 7 0,0
16.10.2017 16:00:00 15,1 10,1 52 28 96 52 ZW 1012,8 7 0,0
16.10.2017 15:00:00 15,4 10,5 54 29 96 52 ZZW 1011,8 7 0,0
16.10.2017 14:00:00 15,7 10,2 46 25 96 52 ZZW 1011,3 7 0,0
16.10.2017 13:00:00 15,7 10,5 55 30 94 51 ZZW 1010,6 7 0,0

tt = temperatuur
td = dauwpunt
ff = windsnelheid
fx = windstoten
dd = windrichting
ppp = luchtdruk
vv = zicht
rr = neerslag

Weerstations in de omgeving